| time (UTC) | temp F | wind direction | speed MPH | gust MPH | rain 1hr in | rain 24hr in | rain mn in | humidity % | barometer mb |
| 20260905061615 | 65 | 103 | 0.0 | 2.0 | 0.00 | 0.00 | 0.00 | 100 | 1014.2 |
| 20260905060058 | 65 | 103 | 0.0 | 6.0 | 0.00 | 0.00 | 0.00 | 100 | 1014.2 |
| 20260905054601 | 65 | 197 | 0.0 | 0.0 | 0.00 | 0.00 | 0.00 | 100 | 1014.3 |
| 20260905053055 | 66 | 197 | 0.0 | 0.0 | 0.00 | 0.00 | 0.00 | 100 | 1014.5 |
| 20260905051554 | 66 | 197 | 0.0 | 0.0 | 0.00 | 0.00 | 0.00 | 100 | 1014.5 |
| 20260905050053 | 66 | 197 | 0.0 | 0.0 | 0.00 | 0.00 | 0.00 | 100 | 1014.6 |
| 20260905044553 | 66 | 197 | 0.0 | 0.0 | 0.00 | 0.00 | 0.00 | 100 | 1014.6 |
| 20260905043051 | 66 | 64 | 0.0 | 0.0 | 0.00 | 0.00 | 0.00 | 100 | 1014.6 |
| 20260905041555 | 66 | 64 | 0.0 | 0.0 | 0.00 | 0.00 | 0.00 | 100 | 1014.6 |
| 20260905040052 | 66 | 64 | 0.0 | 0.0 | 0.00 | 0.00 | 0.00 | 100 | 1014.6 |
| 20260905034548 | 67 | 64 | 0.0 | 0.0 | 0.00 | 0.01 | 0.00 | 100 | 1014.5 |
| 20260905033051 | 67 | 66 | 0.0 | 0.0 | 0.00 | 0.01 | 0.00 | 100 | 1014.5 |
| 20260905031548 | 68 | 66 | 0.0 | 0.0 | 0.00 | 0.01 | 0.00 | 100 | 1014.4 |
| 20260905030047 | 68 | 87 | 0.0 | 0.0 | 0.00 | 0.01 | 0.00 | 100 | 1014.2 |
| 20260905024543 | 68 | 225 | 0.0 | 0.0 | 0.00 | 0.01 | 0.00 | 100 | 1014.2 |
| 20260905023041 | 68 | 142 | 0.0 | 0.0 | 0.00 | 0.01 | 0.00 | 100 | 1014.4 |
| 20260905021540 | 68 | 17 | 0.0 | 0.0 | 0.00 | 0.01 | 0.00 | 100 | 1014.5 |
| 20260905020040 | 68 | 45 | 0.0 | 0.0 | 0.00 | 0.01 | 0.00 | 100 | 1014.5 |
| 20260905014540 | 69 | 319 | 0.0 | 0.0 | 0.00 | 0.01 | 0.00 | 100 | 1014.4 |
| 20260905013038 | 69 | 310 | 0.0 | 0.0 | 0.00 | 0.01 | 0.00 | 100 | 1014.4 |
| 20260905011538 | 69 | 310 | 0.0 | 0.0 | 0.00 | 0.01 | 0.00 | 100 | 1014.4 |
| 20260905010037 | 69 | 46 | 0.0 | 0.0 | 0.00 | 0.01 | 0.00 | 100 | 1014.4 |
| 20260905004537 | 69 | 49 | 0.0 | 0.0 | 0.00 | 0.01 | 0.00 | 100 | 1014.5 |
| 20260905003037 | 69 | 49 | 0.0 | 0.0 | 0.00 | 0.01 | 0.00 | 100 | 1014.1 |
| 20260905001537 | 69 | 49 | 0.0 | 0.0 | 0.00 | 0.01 | 0.00 | 100 | 1013.9 |
| 20260905000040 | 69 | 49 | 0.0 | 0.0 | 0.00 | 0.01 | 0.00 | 100 | 1013.8 |
| 20260904234543 | 69 | 49 | 0.0 | 0.0 | 0.00 | 0.01 | 0.00 | 100 | 1013.8 |
| 20260904233037 | 70 | 49 | 0.0 | 0.0 | 0.00 | 0.01 | 0.00 | 100 | 1013.6 |
| 20260904231534 | 70 | 49 | 0.0 | 0.0 | 0.00 | 0.01 | 0.00 | 100 | 1013.6 |
| 20260904230034 | 70 | 49 | 0.0 | 0.0 | 0.00 | 0.01 | 0.00 | 100 | 1013.6 |
| 20260904224536 | 71 | 49 | 0.0 | 0.0 | 0.00 | 0.01 | 0.00 | 100 | 1013.7 |
| 20260904223032 | 72 | 49 | 0.0 | 3.0 | 0.00 | 0.01 | 0.00 | 100 | 1013.8 |
| 20260904221535 | 73 | 51 | 0.0 | 3.0 | 0.00 | 0.01 | 0.00 | 100 | 1013.7 |
| 20260904220034 | 75 | 94 | 0.0 | 2.0 | 0.00 | 0.01 | 0.00 | 100 | 1013.7 |
| 20260904214532 | 77 | 119 | 0.0 | 6.0 | 0.00 | 0.01 | 0.00 | 100 | 1013.6 |
| 20260904213033 | 76 | 115 | 0.0 | 7.0 | 0.00 | 0.01 | 0.00 | 100 | 1013.5 |
| 20260904211530 | 76 | 92 | 2.0 | 10.0 | 0.00 | 0.01 | 0.00 | 100 | 1013.6 |
| 20260904210030 | 77 | 82 | 1.0 | 4.0 | 0.00 | 0.01 | 0.00 | 100 | 1013.6 |
| 20260904204530 | 77 | 55 | 0.0 | 4.0 | 0.00 | 0.01 | 0.00 | 100 | 1013.7 |
| 20260904203038 | 78 | 109 | 0.0 | 8.0 | 0.00 | 0.01 | 0.00 | 100 | 1013.5 |
| 20260904201528 | 78 | 355 | 1.0 | 6.0 | 0.00 | 0.01 | 0.00 | 100 | 1013.8 |
| 20260904200028 | 78 | 49 | 2.0 | 5.0 | 0.00 | 0.01 | 0.00 | 100 | 1014.0 |
| 20260904194525 | 77 | 85 | 1.0 | 8.0 | 0.00 | 0.01 | 0.00 | 100 | 1014.1 |
| 20260904193028 | 77 | 105 | 3.0 | 8.0 | 0.00 | 0.01 | 0.00 | 100 | 1014.5 |
| 20260904191525 | 77 | 96 | 2.0 | 10.0 | 0.00 | 0.01 | 0.00 | 100 | 1014.5 |
| 20260904190025 | 77 | 98 | 3.0 | 10.0 | 0.00 | 0.01 | 0.00 | 100 | 1014.6 |
| 20260904184522 | 77 | 109 | 4.0 | 11.0 | 0.00 | 0.01 | 0.00 | 100 | 1014.8 |
| 20260904183022 | 77 | 130 | 4.0 | 11.0 | 0.00 | 0.01 | 0.00 | 100 | 1015.0 |
| 20260904181522 | 77 | 94 | 5.0 | 10.0 | 0.00 | 0.01 | 0.00 | 100 | 1015.0 |
| 20260904180019 | 76 | 122 | 3.0 | 11.0 | 0.00 | 0.01 | 0.00 | 100 | 1015.1 |
| 20260904174622 | 76 | 86 | 3.0 | 12.0 | 0.00 | 0.01 | 0.00 | 100 | 1015.0 |
| 20260904173020 | 76 | 219 | 4.0 | 13.0 | 0.00 | 0.01 | 0.00 | 100 | 1015.2 |
| 20260904171517 | 76 | 31 | 4.0 | 10.0 | 0.00 | 0.01 | 0.00 | 100 | 1015.2 |
| 20260904170015 | 76 | 85 | 4.0 | 10.0 | 0.00 | 0.01 | 0.00 | 100 | 1015.2 |
| 20260904164514 | 75 | 115 | 4.0 | 14.0 | 0.00 | 0.01 | 0.00 | 100 | 1015.3 |
| 20260904163013 | 75 | 207 | 4.0 | 11.0 | 0.00 | 0.01 | 0.00 | 100 | 1015.5 |
| 20260904161514 | 75 | 32 | 5.0 | 12.0 | 0.00 | 0.01 | 0.00 | 100 | 1015.5 |
| 20260904160018 | 75 | 99 | 3.0 | 9.0 | 0.00 | 0.01 | 0.00 | 100 | 1015.5 |
| 20260904154507 | 74 | 85 | 1.0 | 10.0 | 0.00 | 0.01 | 0.00 | 100 | 1015.6 |
| 20260904153005 | 73 | 76 | 2.0 | 7.0 | 0.00 | 0.01 | 0.00 | 100 | 1015.7 |
| 20260904151504 | 73 | 137 | 5.0 | 11.0 | 0.00 | 0.01 | 0.00 | 100 | 1015.8 |
| 20260904150011 | 72 | 11 | 2.0 | 9.0 | 0.00 | 0.01 | 0.00 | 100 | 1015.6 |
| 20260904144504 | 73 | 93 | 3.0 | 9.0 | 0.00 | 0.01 | 0.00 | 100 | 1015.8 |
| 20260904143101 | 74 | 98 | 1.0 | 5.0 | 0.00 | 0.01 | 0.00 | 100 | 1015.7 |
| 20260904141559 | 73 | 21 | 3.0 | 9.0 | 0.00 | 0.01 | 0.00 | 100 | 1015.9 |
| 20260904140104 | 73 | 34 | 2.0 | 8.0 | 0.00 | 0.01 | 0.00 | 100 | 1015.5 |
| 20260904134554 | 73 | 17 | 2.0 | 5.0 | 0.00 | 0.01 | 0.00 | 100 | 1015.4 |
| 20260904133049 | 72 | 32 | 2.0 | 8.0 | 0.00 | 0.01 | 0.00 | 100 | 1015.3 |
| 20260904131546 | 72 | 69 | 1.0 | 7.0 | 0.00 | 0.01 | 0.00 | 100 | 1015.3 |
| 20260904130049 | 70 | 115 | 0.0 | 4.0 | 0.00 | 0.01 | 0.00 | 100 | 1015.6 |
| 20260904124539 | 69 | 122 | 2.0 | 8.0 | 0.00 | 0.01 | 0.00 | 100 | 1015.5 |
| 20260904123037 | 68 | 91 | 1.0 | 6.0 | 0.00 | 0.01 | 0.00 | 100 | 1015.5 |
| 20260904121536 | 68 | 81 | 0.0 | 2.0 | 0.00 | 0.01 | 0.00 | 100 | 1015.2 |
| 20260904120035 | 68 | 111 | 0.0 | 3.0 | 0.00 | 0.01 | 0.00 | 100 | 1015.1 |
| 20260904114534 | 68 | 103 | 0.0 | 2.0 | 0.00 | 0.01 | 0.00 | 100 | 1015.3 |
| 20260904113035 | 68 | 103 | 0.0 | 4.0 | 0.00 | 0.01 | 0.00 | 100 | 1015.3 |
| 20260904111539 | 68 | 107 | 0.0 | 1.0 | 0.00 | 0.01 | 0.00 | 100 | 1015.1 |
| 20260904110031 | 68 | 107 | 0.0 | 3.0 | 0.00 | 0.01 | 0.00 | 100 | 1015.2 |
| 20260904104534 | 68 | 139 | 0.0 | 1.0 | 0.00 | 0.01 | 0.00 | 100 | 1014.8 |
| 20260904103028 | 69 | 123 | 0.0 | 0.0 | 0.00 | 0.01 | 0.00 | 100 | 1014.6 |
| 20260904101527 | 69 | 130 | 0.0 | 0.0 | 0.00 | 0.01 | 0.00 | 100 | 1014.6 |
| 20260904100026 | 69 | 119 | 0.0 | 0.0 | 0.00 | 0.01 | 0.00 | 100 | 1014.7 |
| 20260904094525 | 69 | 119 | 0.0 | 0.0 | 0.00 | 0.01 | 0.00 | 100 | 1014.7 |
| 20260904093025 | 69 | 117 | 0.0 | 0.0 | 0.00 | 0.01 | 0.00 | 100 | 1014.7 |
| 20260904091524 | 69 | 103 | 0.0 | 0.0 | 0.00 | 0.01 | 0.00 | 100 | 1014.7 |
| 20260904090026 | 69 | 103 | 0.0 | 1.0 | 0.00 | 0.01 | 0.00 | 100 | 1014.6 |
| 20260904084522 | 69 | 91 | 0.0 | 1.0 | 0.00 | 0.01 | 0.00 | 100 | 1014.3 |
| 20260904083021 | 69 | 128 | 0.0 | 0.0 | 0.00 | 0.01 | 0.00 | 100 | 1014.3 |
| 20260904081520 | 69 | 126 | 0.0 | 0.0 | 0.00 | 0.01 | 0.00 | 100 | 1014.4 |
| 20260904080020 | 69 | 126 | 0.0 | 0.0 | 0.00 | 0.01 | 0.00 | 100 | 1014.3 |
| 20260904074528 | 69 | 130 | 0.0 | 0.0 | 0.00 | 0.01 | 0.00 | 100 | 1014.0 |
| 20260904073019 | 69 | 130 | 0.0 | 0.0 | 0.00 | 0.01 | 0.00 | 100 | 1013.9 |
| 20260904071518 | 69 | 130 | 0.0 | 0.0 | 0.00 | 0.01 | 0.00 | 100 | 1013.8 |
| 20260904070018 | 69 | 130 | 0.0 | 0.0 | 0.00 | 0.01 | 0.00 | 100 | 1013.7 |
| 20260904064517 | 69 | 168 | 0.0 | 0.0 | 0.00 | 0.10 | 0.00 | 100 | 1013.7 |
| 20260904063017 | 69 | 168 | 0.0 | 2.0 | 0.00 | 0.10 | 0.00 | 100 | 1013.5 |